[[{"header":{"parameterUnit":"m.s-1","parameterCategory":1,"la1":30.2991,"la2":30.254,"lo1":-89.0895,"lo2":-89.0444,"dy":0.0017,"dx":0.0017,"nx":28,"ny":28,"refTime":"2025-01-21T09:00:00:Z","depth":0,"parameterNumber":2,"parameterNumberName":"U-component_of_WINDS"},"data":[0,0,0,0,0,0,0,0,0,0,0,0,0,0,0,0,0,0,0,0,0,0,0,0,0,0,0,0,0,0,0,0,0,0,0,0,0,0,0,0,0,0,0,0,0,0,0,0,0,0,0,0,0,0,0,0,0,0,-2.608,-2.6081,0,-2.6181,-2.6182,-2.6183,-2.6159,-2.6157,-2.6155,-2.6153,-2.6255,-2.6259,-2.6264,0,0,0,0,0,0,0,0,0,0,0,0,0,-2.5861,-2.5865,-2.6079,-2.6081,-2.6082,-2.6181,-2.6182,-2.6184,-2.6159,-2.6156,-2.6154,-2.6152,-2.6253,-2.6259,-2.6264,0,0,0,0,0,0,0,0,0,0,0,0,0,-2.5958,-2.5866,-2.6079,-2.6082,-2.6083,-2.6181,-2.6182,-2.6184,-2.6159,-2.6156,-2.6153,-2.6151,-2.6252,-2.6258,-2.6265,-2.6366,0,0,-2.6286,-2.6289,0,0,0,0,0,0,0,0,-2.5953,-2.5966,-2.608,-2.6082,-2.6083,-2.6154,-2.6143,-2.6245,-2.616,-2.613,-2.6153,-2.6149,-2.6224,-2.6233,-2.6258,-2.6371,-2.6375,-2.6286,-2.6291,-2.6293,-2.6295,0,0,0,0,0,0,0,-2.5946,-2.5962,-2.612,-2.6082,-2.6084,-2.6076,-2.6087,-2.6162,-2.6192,-2.6133,-2.6131,-2.6144,-2.6224,-2.6251,-2.626,-2.6377,-2.6286,-2.6292,-2.6296,-2.6299,-2.6576,-2.6579,0,0,0,0,0,0,-2.5938,-2.5956,-2.6116,-2.6123,-2.6009,-2.6083,-2.6095,-2.6134,-2.6191,-2.6197,-2.6146,-2.6142,-2.6241,-2.6252,-2.6264,-2.6386,-2.6293,-2.63,-2.6304,-2.6573,-2.6576,-2.658,0,0,0,0,0,0,-2.5934,-2.5953,-2.6112,-2.6039,-2.6059,-2.609,-2.6134,-2.6138,-2.6166,-2.6201,-2.6206,-2.6169,-2.6239,-2.6254,-2.6341,-2.6389,-2.6303,-2.6309,-2.6569,-2.6574,-2.6578,-2.6631,0,0,0,0,0,0,-2.5928,-2.5951,-2.5991,-2.604,-2.6063,-2.6189,-2.6137,-2.6142,-2.6178,-2.6173,-2.6224,-2.623,-2.6238,-2.6331,-2.6347,-2.6397,-2.6314,-2.6565,-2.6571,-2.6577,-2.6625,-2.6637,-2.6647,0,0,0,0,0,-2.592,-2.6002,-2.5993,-2.6013,-2.6113,-2.6192,-2.6205,-2.6213,-2.6182,-2.6221,-2.6244,-2.6228,-2.638,-2.634,-2.6358,-2.6411,-2.6562,-2.6569,-2.6576,-2.662,-2.6634,-2.6647,0,0,0,0,0,0,-2.5958,-2.6008,-2.6,-2.61,-2.6142,-2.6187,-2.6238,-2.6228,-2.628,-2.6274,-2.6281,-2.6293,-2.6381,-2.6404,-2.6358,-2.651,-2.6466,-2.6478,-2.6493,-2.6507,-2.6518,-2.6512,-2.632,0,0,0,0,0,-2.5978,-2.6038,-2.6078,-2.6163,-2.6184,-2.6207,-2.6242,-2.6245,-2.6288,-2.6305,-2.6334,-2.6376,-2.6433,-2.6471,-2.6526,-2.6627,-2.6637,-2.6672,-2.6683,-2.6692,-2.6702,-2.6757,-2.6772,-2.6604,-2.6604,-2.6604,0,0,-2.602,-2.6055,-2.6093,-2.6171,-2.6204,-2.6265,-2.6223,-2.629,-2.6335,-2.6315,-2.64,-2.6422,-2.6469,-2.6563,-2.6606,-2.6585,-2.675,-2.6701,-2.6708,-2.6714,-2.6766,-2.6782,-2.6796,-2.6609,-2.6608,-2.6607,0,0,-2.6128,-2.6161,-2.6235,-2.6268,-2.6318,-2.6332,-2.635,-2.6397,-2.6411,-2.6495,-2.6481,-2.6534,-2.6633,-2.6667,-2.6697,-2.6815,-2.6802,-2.6832,-2.6891,-2.6944,-2.6957,-2.6969,-2.7012,-2.7027,-2.6842,-2.6842,-2.6842,0,-2.6175,-2.6268,-2.6274,-2.6342,-2.6377,-2.6361,-2.6435,-2.6467,-2.6532,-2.6556,-2.6531,-2.6653,-2.6684,-2.6785,-2.6814,-2.6839,-2.6858,-2.6828,-2.6955,-2.6967,-2.6978,-2.7019,-2.7034,-2.6845,-2.6845,-2.6845,-2.6844,0,-2.6322,-2.6386,-2.6439,-2.6503,-2.6543,-2.6614,-2.663,-2.6669,-2.6668,-2.6684,-2.6769,-2.6805,-2.6866,-2.6889,-2.6888,-2.6991,-2.6976,-2.6953,-2.6909,-2.6997,-2.7036,-2.7051,-2.685,-2.6849,-2.6848,-2.6847,0,0,-2.646,-2.6524,-2.6544,-2.6572,-2.6625,-2.6674,-2.6743,-2.6803,-2.6837,-2.6881,-2.6939,-2.7021,-2.7,-2.7034,-2.7036,-2.7082,-2.7173,-2.7053,-2.7054,-2.7075,-2.7288,-2.7306,-2.7324,-2.7164,-2.7167,-2.7169,-2.7284,0,-2.6574,-2.6698,-2.6704,-2.6815,-2.6874,-2.6859,-2.6918,-2.6956,-2.6973,-2.7024,-2.7041,-2.71,-2.7067,-2.7087,-2.7132,-2.7153,-2.7216,-2.7144,-2.7218,-2.722,-2.7209,-2.7344,-2.7365,-2.7472,-2.7299,-2.7302,-2.7303,0,-2.6725,-2.6774,-2.6892,-2.6934,-2.6959,-2.7013,-2.7068,-2.7117,-2.7159,-2.7167,-2.7204,-2.7199,-2.7268,-2.722,-2.7315,-2.7265,-2.7295,-2.7309,-2.7313,-2.7322,-2.7269,-2.7358,-2.7506,-2.7523,-2.7327,-2.7325,-2.7323,0,-2.6815,-2.691,-2.6993,-2.7017,-2.7069,-2.7107,-2.713,-2.7169,-2.7204,-2.7251,-2.7274,-2.7328,-2.7358,-2.7399,-2.7408,-2.7372,-2.7503,-2.7455,-2.7511,-2.7511,-2.7542,-2.754,-2.7698,-2.7558,-2.7558,-2.7557,-2.7557,0,-2.6943,-2.7016,-2.7034,-2.7085,-2.7165,-2.717,-2.7249,-2.7269,-2.7304,-2.7357,-2.7346,-2.7396,-2.7404,-2.7455,-2.7462,-2.7539,-2.7552,-2.7561,-2.7562,-2.7563,-2.7562,-2.7585,-2.7578,-2.7562,-2.7561,-2.756,-2.7559,0,-2.7059,-2.7074,-2.7163,-2.7204,-2.7216,-2.7273,-2.7308,-2.7356,-2.737,-2.7438,-2.7454,-2.7475,-2.7535,-2.7547,-2.7618,-2.7622,-2.7715,-2.7708,-2.7702,-2.7701,-2.7757,-2.7752,-2.7937,-2.7961,-2.7804,-2.7805,-2.7806,0,-2.7141,-2.7197,-2.7243,-2.7279,-2.7304,-2.7361,-2.7396,-2.7402,-2.744,-2.749,-2.7532,-2.759,-2.7638,-2.7734,-2.7755,-2.7809,-2.7804,-2.7864,-2.7812,-2.7811,-2.7806,-2.7803,-2.7809,-2.7875,-2.7877,-2.7878,-2.7879,0,-2.7285,-2.7289,-2.7342,-2.7396,-2.7439,-2.7482,-2.7523,-2.7552,-2.7563,-2.7605,-2.7666,-2.7703,-2.7775,-2.7833,-2.7886,-2.7908,-2.7896,-2.7895,-2.7911,-2.7914,-2.7909,-2.7913,-2.7731,-2.7892,-2.789,-2.789,-2.7889,-2.7888,-2.7387,-2.7436,-2.7476,-2.7534,-2.7565,-2.7603,-2.765,-2.7669,-2.7721,-2.778,-2.778,-2.7847,-2.7884,-2.7955,-2.798,-2.8031,-2.8012,-2.8035,-2.8041,-2.8047,-2.8053,-2.7898,-2.8041,-2.804,-2.804,-2.804,-2.8039,0,-2.7532,-2.7556,-2.7609,-2.7667,-2.7712,-2.7695,-2.7739,-2.7778,-2.7837,-2.7874,-2.7921,-2.799,-2.8046,-2.807,-2.8125,-2.8161,-2.8157,-2.8175,-2.8174,-2.8179,-2.8067,-2.8048,-2.8178,-2.8178,-2.8178,-2.8178,-2.8178,-2.8178,-2.7612,-2.7693,-2.7702,-2.7797,-2.782,-2.7887,-2.7913,-2.7947,-2.7976,-2.8055,-2.8101,-2.8117,-2.8148,-2.8205,-2.8254,-2.826,-2.8281,-2.8303,-2.8306,-2.8201,-2.8187,-2.8174,-2.8156,-2.8307,-2.8307,-2.8414,-2.8415,-2.8416]},{"header":{"parameterUnit":"m.s-1","parameterCategory":1,"la1":30.2991,"la2":30.254,"lo1":-89.0895,"lo2":-89.0444,"dy":0.0017,"dx":0.0017,"nx":28,"ny":28,"refTime":"2025-01-21T09:00:00:Z","depth":0,"parameterNumber":3,"parameterNumberName":"V-component_of_WINDS"},"data":[0,0,0,0,0,0,0,0,0,0,0,0,0,0,0,0,0,0,0,0,0,0,0,0,0,0,0,0,0,0,0,0,0,0,0,0,0,0,0,0,0,0,0,0,0,0,0,0,0,0,0,0,0,0,0,0,0,0,-11.7336,-11.7338,0,-11.7504,-11.7506,-11.7508,-11.7318,-11.7311,-11.7303,-11.7297,-11.7461,-11.7472,-11.7483,0,0,0,0,0,0,0,0,0,0,0,0,0,-11.6845,-11.6855,-11.7336,-11.7338,-11.7341,-11.7504,-11.7506,-11.7508,-11.7319,-11.731,-11.7302,-11.7293,-11.7458,-11.7471,-11.7484,0,0,0,0,0,0,0,0,0,0,0,0,0,-11.704,-11.6859,-11.7336,-11.7266,-11.7261,-11.7503,-11.7506,-11.7509,-11.7321,-11.731,-11.7299,-11.7289,-11.7453,-11.747,-11.7486,-11.7803,0,0,-11.7537,-11.7544,0,0,0,0,0,0,0,0,-11.7029,-11.7058,-11.7274,-11.7271,-11.7266,-11.7379,-11.7393,-11.7607,-11.7324,-11.7298,-11.7296,-11.7284,-11.7442,-11.7459,-11.7514,-11.7811,-11.7818,-11.7538,-11.7548,-11.7555,-11.756,0,0,0,0,0,0,0,-11.7016,-11.705,-11.7402,-11.7277,-11.7273,-11.7224,-11.724,-11.7433,-11.7428,-11.7299,-11.7286,-11.7309,-11.7438,-11.7498,-11.7516,-11.782,-11.7538,-11.7552,-11.7562,-11.7569,-11.8386,-11.8397,0,0,0,0,0,0,-11.7012,-11.704,-11.7397,-11.7407,-11.7119,-11.7241,-11.7259,-11.7354,-11.7425,-11.7426,-11.7318,-11.7299,-11.7475,-11.7497,-11.7521,-11.7898,-11.7555,-11.7571,-11.758,-11.8374,-11.8388,-11.8401,0,0,0,0,0,0,-11.7002,-11.7045,-11.739,-11.722,-11.7261,-11.7261,-11.7369,-11.7363,-11.7423,-11.744,-11.7437,-11.7381,-11.7468,-11.7498,-11.7735,-11.7901,-11.7578,-11.7593,-11.836,-11.8378,-11.8395,-11.8655,0,0,0,0,0,0,-11.6989,-11.7043,-11.7165,-11.7225,-11.7271,-11.7604,-11.7379,-11.7374,-11.7453,-11.743,-11.7498,-11.7499,-11.7462,-11.7711,-11.7752,-11.7918,-11.7606,-11.8345,-11.8368,-11.8389,-11.8631,-11.8679,-11.872,0,0,0,0,0,-11.6972,-11.723,-11.7172,-11.7216,-11.7424,-11.7614,-11.764,-11.7594,-11.7467,-11.7589,-11.76,-11.7497,-11.7877,-11.7737,-11.7781,-11.7955,-11.8335,-11.8362,-11.8387,-11.8611,-11.867,-11.8719,0,0,0,0,0,0,-11.7187,-11.7236,-11.7173,-11.7458,-11.7534,-11.7582,-11.7734,-11.7657,-11.7768,-11.7742,-11.7678,-11.7694,-11.7947,-11.7974,-11.7818,-11.8266,-11.8084,-11.8121,-11.824,-11.8295,-11.8339,-11.8327,-11.762,0,0,0,0,0,-11.7268,-11.7421,-11.7454,-11.7703,-11.7744,-11.7734,-11.7815,-11.7773,-11.7847,-11.7878,-11.7905,-11.798,-11.8115,-11.8206,-11.8332,-11.8633,-11.8645,-11.8775,-11.8819,-11.8855,-11.8888,-11.905,-11.9108,-11.8488,-11.8488,-11.8487,0,0,-11.7436,-11.7482,-11.7582,-11.7748,-11.7801,-11.7959,-11.7761,-11.7937,-11.8053,-11.7903,-11.813,-11.8153,-11.8231,-11.8503,-11.8623,-11.8533,-11.9062,-11.8889,-11.8918,-11.8931,-11.9083,-11.9142,-11.9194,-11.8506,-11.8503,-11.85,0,0,-11.7824,-11.7874,-11.8088,-11.8146,-11.8231,-11.8222,-11.8273,-11.8334,-11.8345,-11.8571,-11.8463,-11.8598,-11.8834,-11.8895,-11.8956,-11.9369,-11.9279,-11.9411,-11.9643,-11.9802,-11.9851,-11.9894,-12.0042,-12.0096,-11.9443,-11.9444,-11.9445,0,-11.8022,-11.8259,-11.8206,-11.8391,-11.8467,-11.8341,-11.8556,-11.8614,-11.8735,-11.8789,-11.8687,-11.8981,-11.9024,-11.9308,-11.941,-11.9463,-11.9519,-11.9404,-11.9849,-11.9891,-11.993,-12.0071,-12.0127,-11.946,-11.9458,-11.9456,-11.9455,0,-11.8498,-11.8664,-11.8825,-11.8949,-11.9042,-11.9241,-11.9218,-11.9318,-11.9269,-11.927,-11.9503,-11.9551,-11.9685,-11.9749,-11.97,-12.0027,-11.9968,-11.9859,-11.9675,-12.0006,-12.0137,-12.019,-11.9482,-11.9477,-11.9472,-11.9468,0,0,-11.9026,-11.912,-11.918,-11.9235,-11.932,-11.9446,-11.9638,-11.9772,-11.986,-11.9947,-12.0106,-12.0309,-12.0209,-12.0279,-12.0236,-12.0376,-12.0701,-12.0248,-12.0249,-12.0332,-12.1064,-12.1147,-12.1211,-12.0641,-12.0651,-12.0659,-12.1058,0,-11.9417,-11.9754,-11.9713,-12.0035,-12.0187,-12.007,-12.0237,-12.0307,-12.0313,-12.0441,-12.0446,-12.0592,-12.0448,-12.049,-12.0623,-12.0633,-12.0847,-12.0604,-12.0787,-12.0795,-12.0773,-12.1279,-12.1367,-12.1742,-12.1108,-12.1117,-12.1123,0,-11.9918,-12.0027,-12.0365,-12.0428,-12.049,-12.0642,-12.0762,-12.0886,-12.0962,-12.0956,-12.1037,-12.0969,-12.116,-12.0973,-12.1235,-12.107,-12.1142,-12.1159,-12.1172,-12.1189,-12.098,-12.131,-12.1859,-12.1917,-12.1203,-12.1197,-12.1191,0,-12.0271,-12.0502,-12.0735,-12.0785,-12.0863,-12.0973,-12.101,-12.1075,-12.1159,-12.1262,-12.1316,-12.1439,-12.1507,-12.1604,-12.1571,-12.1437,-12.184,-12.165,-12.184,-12.1842,-12.1931,-12.1927,-12.2502,-12.1977,-12.1976,-12.1975,-12.1974,0,-12.0713,-12.0924,-12.0895,-12.1038,-12.1271,-12.1221,-12.1453,-12.1475,-12.1534,-12.1678,-12.1582,-12.1719,-12.1667,-12.18,-12.1775,-12.1996,-12.2027,-12.2027,-12.2018,-12.2037,-12.2037,-12.2084,-12.2058,-12.199,-12.1986,-12.1983,-12.1981,0,-12.1148,-12.1136,-12.1382,-12.1437,-12.1456,-12.1626,-12.1671,-12.1805,-12.1804,-12.1988,-12.2027,-12.2026,-12.2177,-12.2154,-12.2321,-12.2304,-12.2581,-12.2539,-12.2557,-12.2548,-12.2741,-12.2724,-12.3368,-12.345,-12.2871,-12.2876,-12.2881,0,-12.1431,-12.1592,-12.1665,-12.1756,-12.1802,-12.195,-12.2035,-12.1991,-12.2084,-12.2183,-12.2305,-12.2448,-12.2561,-12.2808,-12.282,-12.2948,-12.2909,-12.3126,-12.2928,-12.2942,-12.2914,-12.2906,-12.2922,-12.3166,-12.3173,-12.3178,-12.3182,0,-12.1935,-12.1922,-12.2051,-12.218,-12.2285,-12.2383,-12.247,-12.255,-12.2513,-12.2622,-12.2778,-12.2866,-12.3038,-12.3182,-12.3302,-12.3336,-12.3255,-12.3245,-12.3296,-12.3317,-12.3322,-12.3323,-12.2666,-12.323,-12.3226,-12.3222,-12.3219,-12.3217,-12.2304,-12.2442,-12.2516,-12.2663,-12.2725,-12.2809,-12.2939,-12.2955,-12.3085,-12.3224,-12.3189,-12.3366,-12.3436,-12.3589,-12.3637,-12.3773,-12.3693,-12.3766,-12.3785,-12.3805,-12.3829,-12.33,-12.3794,-12.3793,-12.3791,-12.379,-12.3789,0,-12.2804,-12.2847,-12.2982,-12.311,-12.3226,-12.314,-12.3233,-12.3335,-12.3493,-12.3566,-12.368,-12.3859,-12.3998,-12.4022,-12.4154,-12.4258,-12.4224,-12.4294,-12.4287,-12.4296,-12.3892,-12.3836,-12.432,-12.432,-12.432,-12.432,-12.432,-12.4319,-12.3079,-12.3309,-12.3305,-12.3563,-12.3602,-12.3778,-12.3838,-12.3915,-12.3974,-12.418,-12.4296,-12.4312,-12.4365,-12.45,-12.4624,-12.4627,-12.468,-12.4766,-12.4755,-12.4377,-12.4324,-12.4274,-12.422,-12.4778,-12.4778,-12.5147,-12.5151,-12.5153]}]]